Preview of NWS' New Version of Forecast
This preview is not operational and should not be used for support decisions.
Latest weather observations around

Louisville, Bowman Field Airport (KLOU)

Using English Units (Switch to International System of Units)
Date/ Time (EDT) Wind (mph) Vis. (mi) Weather Sky Cond. Temp (°F) Rel. Humidity Wind Chill (°F) Heat Index (°F) Pressure Precip. (in)
Air Dwpt 6 hour Altimeter (inHg) Sea level (inHg) 1 hr 3 hr 6 hr
Max Min
Jun 24 11:53 SSW 7 10 Light Rain BKN090 OVC120 74 67     79%   75 29.81 29.8 0    
Jun 24 10:53 SW 11 10 Light Rain OVC042 74 66     76%   75 29.82 29.8 0 0  
Jun 24 09:53 SSW 9 10 Mostly Cloudy FEW050 SCT085 BKN100 75 67     76%   76 29.82 29.8 0    
Jun 24 08:53 SSW 11 10 Mostly Cloudy FEW060 SCT090 BKN100 74 66     76%   75 29.83 29.82      
Jun 24 07:53 SSW 8 10 Clear CLR 73 67     81%   74 29.83 29.82      
Jun 24 06:53 S 6 10 Clear CLR 69 66     90%     29.81 29.79      
Jun 24 05:53 SSE 3 10 Clear CLR 70 66     87%     29.79 29.78      
Jun 24 04:53 S 7 10 Clear CLR 71 66     84%   72 29.79 29.78      
Jun 24 03:53 SSE 7 10 Clear CLR 71 67     87%   72 29.81 29.79      
Jun 24 02:53 SSW 3 10 Clear CLR 72 67     84%   73 29.82 29.8      
Jun 24 01:53 S 3 10 Clear CLR 71 68     90%   72 29.83 29.81     0
Jun 24 00:53 SE 3 10 Clear CLR 72 68     87%   73 29.83 29.81      
Jun 23 23:53 SSE 5 10 Mostly Clear FEW120 75 68     79%   76 29.85 29.83 0    
Jun 23 22:53 SSE 6 10 Light Rain FEW120 73 67     81%   74 29.84 29.82 0 0  
Jun 23 21:53 SSE 14 10 Mostly Clear FEW090 74 66     76%   75 29.82 29.8 0    
Jun 23 20:53 SE 9 10 Light Rain CLR 73 66     79%   74 29.84 29.82 0    
Jun 23 19:53 SE 5 10 Clear CLR 73 68     84%   74 29.85 29.84     0
Jun 23 18:53 S 7 10 Mostly Clear FEW035 72 67     84%   73 29.89 29.88      
Jun 23 18:15 ESE 3 10 Clear CLR 71 67     87%   72 29.9        
Jun 23 17:53 ENE 3 10 Clear CLR 70 67     90%     29.9 29.89 0    
Jun 23 17:44 ENE 5 10 Mostly Clear FEW110 70 66     87%     29.91   0    
Jun 23 17:32 ENE 5 10 Light Rain FEW050 SCT110 70 66     87%     29.91   0    
Jun 23 17:12 5 3 Thunderstorms and Heavy Rain and Fog/Mist BKN038 BKN080 69 65     87%     29.95   0    
Jun 23 17:08 WNW 7 2 Heavy Rain and Fog/Mist FEW031 BKN038 OVC050 69 65     87%     29.96   0    
Jun 23 17:04 W 10 1 Heavy Rain and Fog/Mist BKN029 BKN040 BKN050 69 65     87%     29.97   0    
Jun 23 16:57   0.75 Heavy Rain and Fog/Mist SCT014 BKN031 BKN042 69 65     87%     29.99   0    
Jun 23 16:53   2 Heavy Rain FEW020 SCT031 BKN039 71 65     81%   72     0 0  
Jun 23 16:40 WSW 8 10 Partly Cloudy FEW034 SCT046 SCT070 85 73     68%   92 29.93        
Jun 23 16:05 SSW 8 10 Mostly Cloudy BKN031 BKN039 87 73     63%   95 29.92        
Jun 23 15:53 S 5 10 Mostly Cloudy BKN029 BKN039 BKN060 86 73     65%   93 29.91 29.9      
Jun 23 15:00 S 13 10 Cloudy BKN033 OVC043 86 72     63%   92 29.94        
Jun 23 14:53 SW 13 10 Mostly Cloudy BKN029 BKN034 87 73     63%   95 29.94 29.92      
Jun 23 13:53 7 10 Mostly Cloudy BKN027 BKN034 86 73     65%   93 29.97 29.95      
Jun 23 12:53 S 9 10 Mostly Cloudy BKN020 82 71     69%   86 29.97 29.96      
Jun 23 12:33 S 9 10 Mostly Cloudy BKN019 81 71     72%   85 29.98        
Jun 23 11:53 SSE 11 10 Mostly Clear FEW070 80 70     71%   83 29.98 29.96      
Jun 23 10:53 SSE 9 10 Mostly Clear FEW016 78 69     74%   79 30 29.98      
Jun 23 09:53 S 7 10 Mostly Clear FEW010 74 67     79%   75 30.02 30      
Jun 23 09:20 S 6 10 Partly Cloudy SCT011 72 65     79%   73 30.02        
Jun 23 08:53 S 8 10 Mostly Cloudy BKN011 71 65     81%   72 30.02 30.01      
Jun 23 07:53 E 8 10 Mostly Clear FEW070 69 63     81%     30.02 30      
Jun 23 06:53 E 3 10 Clear CLR 67 62     84%     30.03 30.01      
Jun 23 05:53 E 6 10 Clear   68 62     81%     30.01 29.99      
Jun 23 04:53 NE 3 10 Clear CLR 67 63     87%     30.02 30.01      
Jun 23 03:53 Calm 10 Clear CLR 67 64     90%     30.03 30.01      
Jun 23 02:53 NNE 3 10 Clear CLR 69 64     84%     30.04 30.02      
Jun 23 01:53 NE 5 10 Partly Cloudy SCT028 70 65     84%     30.04 30.02      
Jun 23 00:53 Calm 10 Mostly Clear FEW033 70 65     84%     30.06 30.05      
Jun 22 23:53 E 3 10 Clear CLR 73 66     79%   74 30.05 30.03      
Jun 22 23:22 E 6 10 Mostly Clear FEW021 72 66     82%   73 30.04        
Jun 22 22:53 ESE 5 10 Mostly Cloudy BKN021 73 66     79%   74 30.04 30.03      
Jun 22 21:53 E 7 10 Clear CLR 74 66     76%   75 30.01 30      
Jun 22 20:53 ENE 10 10 Clear CLR 75 66     74%   76 29.95 29.93      
Jun 22 19:53 ENE 13 10 Clear CLR 77 66     69%   78 29.97 29.96      
Jun 22 18:53 NE 9 10 Mostly Clear FEW027 FEW032 79 67     67%   80 30 29.99      
Jun 22 17:53 NNE 7 10 Mostly Clear FEW035 80 67     64%   82 30.04 30.03      
Jun 22 16:53 WNW 5 10 Clear CLR 79 67     67%   80 30.07 30.05      
Jun 22 15:53 NE 6 10 Partly Cloudy SCT025 78 67     69%   79 30.03 30.02      
Jun 22 14:53 NNW 10 10 Cloudy OVC029 79 68     69%   80 30.01 30      
Jun 22 14:33 Calm 10 Mostly Cloudy BKN025 80 66     62%   82 30.01        
Jun 22 13:53 Calm 10 Partly Cloudy SCT021 78 67     69%   79 30.01 30     0
Jun 22 13:51 Calm 10 Partly Cloudy SCT021 79 66     65%   79 30.01        
Jun 22 13:27 Calm 10 Mostly Cloudy BKN020 78 67     69%   79 30.01        
Jun 22 13:08 6 10 Partly Cloudy SCT018 SCT023 77 67     71%   78 30.02        
Jun 22 12:53 E 7 10 Mostly Cloudy BKN018 BKN022 76 68     76%   77 30.02 30      
Jun 22 12:38 SE 6 10 Mostly Cloudy SCT014 BKN019 74 67     79%   75 30.02        
Jun 22 11:53 SSE 5 10 Mostly Cloudy BKN009 72 66     82%   73 30.02 30      
Jun 22 11:20 SE 7 10 Mostly Cloudy BKN006 71 66     84%   72 30        
Jun 22 10:53 SSE 7 10 Partly Cloudy FEW003 SCT035 70 66     87%     29.99 29.98 0 0  
Jun 22 10:32 ESE 9 10 Light Rain FEW003 SCT043 BKN110 69 66     90%     29.97   0    
Jun 22 09:53 SE 5 7 Light Rain SCT110 68 65     90%     30.01 30 0    
Jun 22 09:28 SSE 7 2 Rain and Fog/Mist FEW006 SCT090 BKN110 68 65     90%     30.04   0    
Jun 22 09:18 S 7 2 Thunderstorms and Rain and Fog/Mist FEW004 FEW090 BKN110 68 65     90%     30.05   0    
Jun 22 09:00 S 10 2 Thunderstorms and Rain and Fog/Mist FEW070 SCT095 BKN120 68 65     90%     30.05   0    
Jun 22 08:53 Calm 2 Rain and Fog/Mist FEW070 BKN095 BKN120 68 65     90%     30.04 30.03 0    
Jun 22 08:32 S 3 2 Rain and Fog/Mist BKN070 BKN090 BKN120 68 65     90%     30.07   0    
Jun 22 08:19 Calm 9 Light Rain FEW080 FEW095 BKN120 68 65     90%     30.06   0    
Jun 22 07:53 E 5 5 Thunderstorms and Rain and Fog/Mist FEW020 SCT050 BKN070 67 65     93%     30.03 30.02 0   0
Jun 22 07:48 E 5 3 Thunderstorms and Rain and Fog/Mist SCT020 BKN048 OVC110 68 64     88%     30.04   0    
Jun 22 07:42 NNE 5 1.75 Thunderstorms and Heavy Rain and Fog/Mist SCT020 BKN050 OVC060 68 65     90%     30.05   0    
Jun 22 07:37 3 3 Thunderstorms and Heavy Rain and Fog/Mist FEW020 SCT026 OVC060 68 65     90%     30.06   0    
Jun 22 07:17 Calm 10 Cloudy OVC060 68 64     87%     30.01   0    
Jun 22 06:53 ESE 7 8 Light Rain OVC060 68 64     87%     29.97 29.96 0    
Jun 22 05:53 Calm 10 Clear CLR 67 63     87%     29.97 29.95      
Jun 22 04:53 ESE 5 10 Clear CLR 67 63     87%     29.95 29.93      
Jun 22 03:53 ENE 3 10 Clear CLR 67 64     90%     29.95 29.93      
Jun 22 02:53 SSW 5 10 Clear CLR 67 64     90%     29.95 29.93      
Jun 22 01:53 Calm 10 Clear CLR 68 65     90%     29.96 29.94     0
Jun 22 00:53 NNE 5 10 Clear CLR 69 65     87%     29.95 29.94      
Jun 21 23:53 NW 6 10 Clear CLR 69 64     84%     29.91 29.9      
Jun 21 22:53 SSE 16 10 Mostly Clear FEW120 69 65     87%     29.89 29.88 0 0  
Jun 21 21:53 SSW 13 9 Rain BKN110 71 65     81%   72 29.93 29.92 0    
Jun 21 21:35 SE 13 10 Light Rain FEW090 BKN120 71 67     87%   72 29.96   0    
Jun 21 20:53 ESE 8 6 Rain FEW055 BKN090 OVC110 71 66     84%   72 30.01 29.99 0    
Jun 21 20:23 WNW 10 5 Thunderstorms and Heavy Rain BKN055 BKN075 OVC090 72 65     79%   73 30.02   0    
Jun 21 19:53 N 8 10 Cloudy BKN048 OVC065 78 61     56%   78 29.98 29.97      
Jun 21 18:53 ESE 7 10 Mostly Clear FEW100 80 61     52%   81 29.97 29.96      
Jun 21 17:53 SE 7 10 Mostly Cloudy FEW065 BKN110 81 60     49%   82 29.97 29.96      
Jun 21 16:53 SE 8 10 Cloudy OVC070 82 59     46%   82 29.98 29.97      
Jun 21 15:53 Calm 10 Mostly Cloudy BKN080 82 58     44%   82 29.98 29.97      
Jun 21 14:53 S 5 10 Mostly Clear FEW110 83 58     43%   83 30 29.98      
Jun 21 13:53 Calm 10 Clear CLR 81 58     45%   81 30.01 30      
Jun 21 12:53 5 10 Clear CLR 79 57     47%   79 30.03 30.02      
May 15 07:53 Calm 10 Mostly Clear FEW065 75 68     79%   76 29.96 29.94      
May 15 04:53 SW 3 10 Clear CLR 75 67     76%   76 29.91 29.89      
May 14 19:53 SSW 8 10 Mostly Clear FEW070 86 65     50%   88 29.88 29.86      
May 14 18:53 SSW 10 10 Mostly Clear FEW065 88 64     45%   89 29.89 29.88      
May 14 12:53 WNW 11 10 Mostly Clear FEW055 87 66     50%   89 30.02 30      
May 14 11:53 NW 10 10 Partly Cloudy SCT065 86 66     51%   88 30.03 30.01      
May 14 00:53 S 6 10 Clear CLR 74 66     76%   75 29.99 29.97      
May 12 16:53 WSW 8 10 Clear   87 65     48%   89 30.04 30.02      
May 12 11:53 SW 9 10 Clear CLR 83 64     53%   84 30.09 30.08      
May 12 07:53 SSW 5 10 Clear CLR 73 62     68%   73 30.07 30.05      
May 12 04:53 S 7 10 Clear CLR 71 61     70%   71 30.02 30.01      
May 12 03:53 S 7 10 Clear CLR 72 61     68%   72 30.02 30      
May 12 01:53 SSW 7 10 Clear CLR 74 62     66%   74 30.01 29.99      
May 11 23:53 S 3 10 Clear CLR 75 62     64%   75 30 29.98      
May 11 16:53 SW 13 10 Clear CLR 87 61     42%   87 29.96 29.94      
Jun 12 07:53 S 5 10 Mostly Cloudy BKN070 76 69     79%   77 30.13 30.11      
Jun 12 05:53 Calm 10 Partly Cloudy SCT050 SCT070 72 66     82%   73 30.11 30.09      
Jun 11 17:53 S 9 10 Mostly Clear FEW070 86 63     46%   87 30.08 30.06      
Jun 11 06:53 Calm 10 Clear CLR 67 61     81%     30.12 30.1      
Jun 09 03:53 Calm 10 Clear CLR 57 54     89%     29.91 29.9      
Jun 09 00:53 Calm 10 Clear CLR 60 54     80%     29.92 29.91      
Jun 08 15:53 3 10 Partly Cloudy SCT047 74 53     48%   73 29.95 29.94      
Jun 08 14:53 Calm 10 Cloudy OVC060 71 52     51%   70 29.97 29.96      
Jun 06 09:53 ENE 8 10 Clear CLR 68 57     68%     29.93 29.92      
Jun 05 20:07 SSW 7 10 Clear CLR 68 65     90%     29.77        
Notice The following observation data may not be complete
Jun 05 19:19 5 5 Thunderstorms and Rain SCT026 BKN039 OVC100   63      %     29.72   0